Showing default

ESTCUBE 1, 39161

Orbit data source: Space-Track

ESTCUBE 1, 39161 is a payload satellite owned by ESSP (EE) in SSO that was launched on Tue, 07 May 2013 UTC via a VEGA launch vehicle from the French Guiana (FRGUI). Payload-class satellites include a variety of spacecraft equipped with specific instruments for various scientific and technological missions. These include communications satellites like Starlink; space stations such as the ISS; scientific satellites like the Hubble; Earth observation satellites from companies like Planet Labs, Umbra, and HawkEye 360; GPS; miniature CubeSats for education and research; and military/defense satellites.

Loading next visibility...
Identifier
39161, 2013-021C
Orbit
SSO
Country
Flag of EEEE / EST
Related business
Manufacturer
ESSP/TARTU
Mission
Non-operational Amateur Technology
Bus & Motor
CUBESAT 1U, Unknown motor
Mass
1 kg wet, 1 kg dry
Launch date (UTC)
2013-05-07 (13 years ago)
Launch vehicle
VEGA
Launch site
French Guiana (FRGUI)
Object type
Payload
Rocket body
Debris
Shape & HBR
Box, 0.1 m
Radar Cross Section
0.015 m², Medium (>0.1 m² and < 1m²)

Expand to show TLE details & history
Last TLE update: 3 days ago

TLE from 3 days ago
0 ESTCUBE 1
1 39161U 13021C   26170.69385700  .00001144  00000-0  15265-3 0  9993
2 39161  97.7292 224.7912 0008409  17.7389 342.4116 14.81406798705394
Epoch: 2026-06-19T16:39Z
TLE epoch observation values (Epoch: 2026-06-19T16:39:09.244Z)
Latitude
-0.00007°
Longitude
67.08353°
Altitude
622.301 km
Speed
7.551 km/s
True Right ascension
14h 59m 09s
True Declination
0° 00' 00"
Sunlit
Object was in full shadow at epoch
Visualization orbit readout
Latitude
Unknown
Longitude
Unknown
Altitude
Unknown
Speed
Unknown
Apparent Right ascension
Unknown
Apparent Declination
Unknown
Sunlit
N/A
Visualization observer readout
Local Sidereal Time
23:08:03
Azimuth
Unknown
Elevation
Unknown
Doppler factor
Unknown
Orbital elements
Apogee altitude
627.805 km
Perigee altitude
616.032 km
Semi-major axis
7,000.055 km
Eccentricity
0.00084
Inclination
97.7292°
RAAN
224.7912°
Arg. of periapsis
17.7389°
True anomaly
342.38245°
Mean anomaly
342.4116°
Eccentric anomaly
342.39703°
Mean motion
3.70588 °/min
Orbital period
97.14 mins
BSTAR
0.00015265
Loading maneuver chart data...
Computing Atmospheric mass density...
Loading historical data...
Loading historical data...
Loading historical data...
Loading historical data...
Loading historical data...
Loading historical data...
Loading historical data...

Documentation

Showing up to 5 results
|